Regional Weather Roundup
Issued by NWS

Home | Current Version | Previous Version | Text Only | Print | Product List | Glossary Off
Versions: 1 2 3 4 5 6 7 8 9 10 11 12 13 14 15 16 17 18 19 20 21 22 23 24 25 26 27 28 29 30 31 32 33 34 35 36 37 38 39 40 41 42 43 44 45 46 47 48 49 50

033
ASUS43 KLMK 291810
RWRKY
KENTUCKY REGIONAL WEATHER ROUNDUP
NATIONAL WEATHER SERVICE LOUISVILLE KY
200 PM EDT SAT APR 29 2017

NOTE "FAIR" INDICATES FEW OR NO CLOUDS BELOW 12,000 FEET
WITH NO SIGNIFICANT WEATHER AND/OR OBSTRUCTIONS TO VISIBILITY.

KYZ001>023-026-027-061>063-070>075-291900-
WESTERN AND SOUTH CENTRAL KENTUCKY

CITY           SKY/WX    TMP DP  RH WIND       PRES   REMARKS
PADUCAH        PTSUNNY   82  66  58 SE14      29.89F
HENDERSON        N/A    N/A N/A N/A MISG        N/A
OWENSBORO      CLOUDY    82  68  62 SE13      29.97F
HOPKINSVILLE   SUNNY     84  66  55 SE9       29.96F
BOWLING GREEN  MOSUNNY   84  67  56 S13       30.01F
GLASGOW        MOSUNNY   83  67  58 N5        30.02F
$$

KYZ024-025-028>034-038-045-046-053-291900-
NORTH CENTRAL KENTUCKY

CITY           SKY/WX    TMP DP  RH WIND       PRES   REMARKS
LOUISVILLE/SDF CLOUDY    78  64  61 E10       30.04F
LOUISVILLE/LOU CLOUDY    78  64  61 E8        30.05F
FORT KNOX      CLOUDY    74  65  75 NE10      30.02F
$$

KYZ035>037-039>044-047>052-055>060-089>105-291900-
NORTHEAST KENTUCKY

CITY           SKY/WX    TMP DP  RH WIND       PRES   REMARKS
LEXINGTON      CLOUDY    79  65  62 NE7       30.09F
COVINGTON      CLOUDY    73  65  75 SE10      30.06F
FRANKFORT      PTSUNNY   79  64  60 E5        30.06F
$$

KYZ054-064>069-076>088-106>120-291900-
SOUTHEAST KENTUCKY

CITY           SKY/WX    TMP DP  RH WIND       PRES   REMARKS
JACKSON        CLOUDY    85  65  51 VRB3      30.11F
LONDON         CLOUDY    86  60  41 S9        30.08F
SOMERSET       CLOUDY    82  64  54 E5        30.08F
MIDDLESBORO    MOSUNNY   86  64  47 W9G17     30.10S
MONTICELLO     CLOUDY    88  66  48 W10G18    30.07F HX  90
$$





USA.gov is the U.S. government's official web portal to all federal, state and local government web resources and services.